Meteo Giornale » Osservazioni meteo Italia » Aosta

ore: 21:20 - Osservazioni Meteo Aosta
Lat. 45° 44' N Lon. 7° 22' E Alt. 546 metri s.l.m.

sereno Europe/Rome

19 °C

Sereno

Temp. 24 Ore

15 °C

23 °C

Ovest/Nord-Ovest

18.5 Km/h

Dew point 2 °C

Umidità 32 %

Visibilità  10 Km

Il sole sorge alle ore 05:50

Il sole tramonta alle ore 21:03

Data e Ora Cielo e Fenomeni T °C DP °C Um. % Pres. hPa Vis. km Vento km/h
Ieri h: 21:20 sereno Sereno 19 2 32 1012 10 O/NO 18.5
Ieri h: 20:50 sereno Sereno 19 2 32 1012 10 O/NO 20.3
Ieri h: 20:20 sereno Sereno 20 2 30 1011 10 O 24
Ieri h: 19:50 sereno Sereno 20 2 30 1011 10 O 24
Ieri h: 19:20 sereno Sereno 21 3 30 1011 10 O/NO 20.3
Ieri h: 18:50 sereno Sereno 22 2 26 1010 10 O/NO 24
Ieri h: 18:20 sereno Sereno 22 2 26 1010 10 O/NO 27.8
Ieri h: 17:50 sereno Sereno 23 3 26 1010 10 O/NO 25.9
Ieri h: 17:20 sereno Sereno 23 2 25 1010 10 NO 22.2
Ieri h: 16:50 sereno Sereno 23 2 25 1010 10 NO 29.6
Ieri h: 16:20 sereno Sereno 23 2 25 1010 10 NO 29.6
Ieri h: 15:50 sereno Sereno 23 2 25 1010 10 NO 27.8
Ieri h: 15:20 sereno Sereno 23 2 25 1010 10 NO 24
Ieri h: 14:50 sereno Sereno 23 3 26 1010 10 NO 24
Ieri h: 14:20 sereno Sereno 22 2 26 1010 10 NO 31.5
Ieri h: 13:50 sereno Sereno 23 3 26 1010 10 NO 22.2
Ieri h: 13:20 sereno Sereno 22 3 28 1010 10 NO 20.3
Ieri h: 12:50 sereno Sereno 22 3 28 1010 10 O/NO 24
Ieri h: 12:20 sereno Sereno 22 4 30 1010 10 O/NO 20.3
Ieri h: 11:50 poco_nuvoloso Poco Nuvoloso 21 3 30 1010 10 O/NO 18.5
Ieri h: 11:20 poco_nuvoloso Poco Nuvoloso 21 3 30 1010 10 O/NO 22.2
Ieri h: 10:50 poco_nuvoloso Poco Nuvoloso 22 3 28 1010 10 O 18.5
Ieri h: 10:20 sereno Sereno 21 4 32 1010 10 O/SO 24
Ieri h: 09:50 sereno Sereno 20 4 34 1010 10 O 22.2
Ieri h: 09:20 sereno Sereno 19 4 37 1010 10 O 20.3
Ieri h: 08:50 sereno Sereno 18 5 42 1010 10 O 22.2
Ieri h: 08:20 sereno Sereno 17 4 41 1010 10 O 18.5
Ieri h: 07:50 sereno Sereno 17 4 41 1010 10 O/NO 20.3
Ieri h: 07:20 sereno Sereno 16 4 44 1010 10 O 14.8
Ieri h: 06:50 sereno Sereno 15 4 47 1010 10 O 14.8
Ieri h: 06:20 sereno Sereno 15 4 47 1010 10 O 14.8
Ieri h: 05:50 sereno Sereno 15 3 44 1009 10 O/NO 16.7
Ieri h: 05:20 sereno Sereno 16 3 41 1009 10 O/NO 18.5